Temp
-8 -8 -8 -7 -7 -7 -7 -7 -7 -7 -6 -6 -6 -5 -5 -5 -5 -5 -4 -4 -4 -4 -4 -4 -4 -5 -5 -5 -6 -6 -5 -7 -7 -7 -8 -8 -6 -6 -7 -8 -7 -6 -6 -6 -6
-8 -8 -8 -8 -7 -7 -7 -7 -7 -7 -6 -6 -6 -6 -6 -5 -5 -5 -5 -4 -4 -4 -4 -4 -5 -5 -5 -5 -7 -6 -7 -7 -6 -7 -8 -6 -6 -8 -7 -6 -7 -6 -6 -6 -6
-8 -8 -8 -8 -8 -7 -7 -7 -7 -7 -7 -6 -6 -6 -6 -6 -5 -5 -5 -5 -5 -4 -4 -4 -5 -5 -4 -7 -7 -6 -5 -8 -6 -5 -6 -8 -7 -7 -8 -7 -5 -7 -6 -6 -6
-8 -8 -8 -8 -8 -8 -7 -7 -7 -7 -7 -6 -6 -6 -6 -6 -5 -5 -5 -5 -5 -5 -5 -4 -5 -5 -5 -6 -7 -7 -7 -7 -5 -5 -6 -6 -7 -8 -7 -6 -6 -7 -6 -6 -7
-9 -9 -8 -8 -8 -8 -8 -7 -7 -7 -7 -7 -6 -6 -6 -6 -6 -5 -5 -5 -5 -5 -5 -5 -5 -5 -5 -7 -6 -6 -7 -6 -5 -5 -6 -6 -7 -7 -7 -5 -6 -6 -6 -6 -7
-9 -9 -9 -8 -8 -8 -8 -7 -7 -7 -7 -7 -7 -6 -6 -6 -6 -5 -6 -5 -5 -5 -5 -5 -5 -5 -5 -5 -6 -5 -5 -5 -5 -6 -6 -7 -7 -7 -6 -6 -6 -6 -6 -6 -6
-9 -9 -9 -9 -8 -8 -8 -8 -7 -7 -7 -7 -7 -6 -6 -6 -6 -6 -6 -5 -5 -5 -5 -5 -5 -5 -5 -5 -6 -5 -5 -6 -6 -6 -7 -7 -7 -8 -7 -6 -6 -6 -6 -6 -6
-9 -9 -9 -9 -9 -9 -8 -8 -8 -8 -7 -7 -7 -6 -6 -6 -6 -6 -6 -6 -5 -5 -5 -5 -5 -5 -5 -5 -5 -6 -6 -6 -7 -6 -7 -7 -7 -7 -7 -5 -6 -6 -6 -6 -6
-9 -9 -9 -9 -9 -9 -8 -8 -8 -8 -7 -7 -7 -7 -7 -6 -6 -6 -6 -6 -6 -5 -5 -5 -5 -6 -5 -6 -6 -6 -7 -7 -7 -6 -6 -6 -8 -7 -7 -7 -6 -6 -6 -6 -6
-9 -9 -9 -9 -9 -9 -8 -8 -8 -8 -8 -7 -7 -7 -7 -6 -6 -6 -6 -6 -6 -6 -5 -5 -6 -6 -6 -6 -7 -7 -6 -6 -7 -7 -5 -6 -7 -8 -6 -7 -5 -6 -6 -6 -6
-10 -9 -9 -9 -9 -9 -9 -9 -8 -8 -8 -8 -7 -7 -7 -7 -7 -6 -6 -6 -6 -6 -6 -6 -6 -6 -6 -8 -7 -6 -7 -6 -7 -7 -6 -6 -7 -7 -7 -7 -8 -6 -7 -6 -7
-10 -10 -9 -9 -9 -9 -9 -9 -8 -8 -8 -8 -7 -7 -7 -7 -7 -7 -6 -6 -6 -6 -6 -6 -6 -7 -7 -6 -6 -6 -6 -6 -7 -7 -6 -6 -6 -7 -8 -6 -7 -7 -6 -7 -7
-10 -10 -10 -9 -9 -9 -9 -9 -9 -8 -8 -8 -8 -7 -7 -7 -7 -7 -7 -7 -6 -6 -6 -6 -8 -6 -5 -6 -6 -6 -6 -7 -7 -8 -6 -6 -6 -7 -7 -6 -6 -7 -7 -7 -7
-10 -10 -10 -10 -10 -9 -9 -9 -9 -9 -8 -8 -8 -8 -7 -7 -7 -7 -7 -7 -7 -7 -7 -7 -7 -6 -6 -6 -6 -6 -8 -7 -6 -6 -6 -7 -7 -7 -7 -8 -8 -6 -6 -7 -7
-10 -10 -10 -10 -10 -9 -9 -9 -9 -9 -9 -9 -8 -8 -8 -7 -8 -7 -7 -7 -7 -7 -7 -7 -7 -6 -6 -7 -7 -7 -7 -6 -6 -6 -6 -6 -7 -7 -7 -8 -8 -8 -6 -7 -7
-11 -10 -10 -10 -10 -10 -10 -10 -9 -9 -9 -10 -8 -8 -8 -8 -8 -7 -7 -7 -7 -7 -7 -8 -7 -7 -7 -7 -7 -7 -7 -6 -6 -6 -6 -7 -7 -6 -7 -7 -6 -8 -7 -7 -7
-11 -11 -11 -11 -10 -10 -10 -10 -10 -9 -9 -10 -9 -8 -8 -8 -8 -8 -8 -7 -7 -7 -7 -8 -7 -7 -7 -7 -7 -7 -7 -7 -7 -7 -7 -7 -7 -7 -7 -7 -6 -7 -7 -7 -7
-11 -12 -12 -12 -12 -11 -11 -10 -10 -9 -10 -10 -11 -9 -8 -8 -8 -8 -8 -8 -8 -8 -9 -8 -9 -7 -7 -7 -8 -7 -7 -8 -7 -7 -7 -7 -7 -8 -7 -7 -7 -7 -7 -7 -7
-11 -11 -12 -12 -12 -12 -12 -11 -10 -10 -11 -11 -11 -10 -9 -9 -9 -9 -8 -8 -8 -8 -8 -8 -8 -8 -8 -7 -7 -7 -7 -8 -8 -6 -7 -7 -7 -8 -9 -9 -8 -7 -7 -7 -7
-11 -11 -11 -12 -12 -12 -12 -12 -11 -12 -12 -12 -11 -9 -10 -10 -10 -10 -9 -8 -8 -8 -8 -9 -9 -9 -9 -7 -7 -8 -8 -8 -8 -7 -7 -7 -7 -7 -8 -9 -9 -8 -8 -8 -7
-12 -11 -11 -11 -12 -11 -11 -11 -12 -12 -12 -12 -10 -11 -10 -10 -10 -10 -10 -9 -9 -10 -9 -9 -9 -9 -9 -7 -8 -8 -8 -8 -8 -8 -8 -7 -7 -7 -7 -8 -8 -8 -8 -8 -8
-12 -12 -12 -11 -11 -11 -11 -12 -12 -13 -11 -11 -11 -10 -10 -10 -10 -10 -10 -10 -10 -10 -10 -8 -9 -9 -9 -9 -9 -8 -9 -9 -8 -7 -8 -7 -8 -7 -9 -8 -10 -9 -8 -8 -8
-12 -12 -12 -12 -11 -11 -11 -12 -12 -12 -11 -11 -11 -11 -10 -11 -9 -10 -10 -10 -10 -10 -10 -10 -9 -9 -9 -9 -9 -9 -8 -8 -9 -8 -7 -9 -8 -8 -9 -9 -9 -9 -9 -9 -8
-13 -13 -12 -12 -12 -11 -11 -12 -12 -11 -11 -12 -11 -11 -11 -10 -10 -10 -10 -10 -10 -10 -9 -9 -9 -9 -9 -10 -9 -9 -9 -9 -9 -9 -8 -8 -9 -7 -9 -9 -8 -10 -10 -9 -9
-13 -13 -12 -12 -13 -12 -12 -11 -12 -11 -11 -11 -11 -11 -10 -10 -10 -10 -11 -11 -10 -9 -9 -9 -9 -9 -8 -9 -10 -10 -10 -10 -9 -9 -9 -9 -9 -9 -9 -9 -6 -10 -10 -9 -10
-14 -13 -13 -12 -12 -12 -12 -12 -11 -11 -11 -11 -11 -11 -11 -11 -11 -11 -11 -11 -12 -10 -10 -9 -9 -9 -8 -9 -10 -10 -9 -9 -9 -9 -9 -9 -9 -9 -8 -9 -7 -11 -10 -9 -10
-14 -14 -13 -13 -13 -13 -13 -12 -12 -12 -12 -11 -11 -11 -11 -11 -11 -11 -10 -10 -10 -10 -9 -9 -9 -9 -9 -9 -10 -10 -9 -9 -9 -9 -9 -9 -9 -9 -8 -9 -8 -9 -8 -9 -9
Height
5883 5885 5887 5890 5892 5893 5895 5897 5899 5901 5902 5905 5907 5909 5912 5913 5914 5916 5917 5919 5920 5921 5923 5924 5926 5928 5929 5931 5931 5929 5920 5940 5941 5939 5937 5934 5930 5930 5927 5925 5923 5921 5917 5915 5912
5881 5884 5886 5888 5890 5892 5894 5896 5899 5901 5902 5905 5907 5909 5911 5913 5915 5917 5918 5919 5921 5923 5924 5926 5926 5929 5931 5932 5934 5927 5927 5931 5937 5936 5936 5934 5933 5931 5925 5922 5921 5921 5920 5917 5914
5879 5881 5883 5886 5888 5890 5893 5895 5898 5900 5902 5905 5907 5909 5911 5912 5915 5917 5918 5919 5921 5923 5925 5927 5927 5930 5930 5933 5936 5930 5931 5935 5937 5936 5936 5937 5933 5934 5928 5924 5919 5923 5920 5918 5915
5876 5879 5881 5884 5886 5888 5891 5894 5896 5899 5902 5904 5907 5909 5910 5912 5916 5916 5919 5920 5921 5923 5924 5926 5928 5929 5931 5933 5934 5938 5936 5936 5937 5936 5935 5934 5934 5937 5932 5925 5922 5924 5922 5919 5916
5873 5876 5879 5882 5884 5886 5889 5892 5895 5897 5900 5903 5905 5908 5910 5912 5914 5917 5918 5920 5921 5923 5925 5926 5927 5929 5930 5934 5934 5934 5935 5936 5937 5937 5936 5934 5933 5934 5932 5929 5926 5924 5922 5919 5917
5870 5873 5876 5879 5881 5884 5887 5890 5893 5895 5899 5901 5904 5906 5909 5912 5913 5916 5917 5920 5921 5922 5924 5925 5926 5927 5930 5931 5933 5934 5936 5936 5937 5937 5936 5933 5933 5933 5932 5929 5926 5923 5921 5919 5916
5866 5869 5872 5876 5879 5881 5884 5887 5890 5894 5896 5899 5902 5904 5907 5911 5912 5914 5916 5918 5920 5922 5923 5924 5926 5927 5928 5931 5932 5934 5936 5937 5938 5937 5936 5933 5936 5931 5931 5929 5925 5923 5920 5918 5914
5861 5865 5868 5872 5875 5878 5881 5884 5887 5890 5894 5897 5900 5902 5905 5907 5910 5913 5914 5917 5918 5921 5922 5924 5925 5927 5929 5931 5932 5934 5936 5937 5941 5938 5937 5934 5929 5925 5931 5928 5925 5922 5919 5917 5914
5856 5860 5864 5868 5872 5875 5878 5882 5884 5887 5890 5893 5898 5900 5903 5905 5908 5910 5912 5915 5917 5919 5921 5923 5924 5927 5929 5931 5933 5935 5937 5941 5939 5937 5937 5936 5936 5933 5931 5927 5926 5923 5920 5917 5914
5851 5855 5859 5864 5868 5871 5875 5878 5881 5884 5887 5890 5894 5898 5900 5903 5906 5907 5910 5913 5915 5917 5920 5922 5923 5925 5927 5930 5933 5939 5941 5942 5940 5939 5935 5935 5938 5934 5930 5926 5925 5923 5921 5917 5915
5845 5850 5854 5858 5863 5868 5872 5875 5878 5880 5884 5887 5892 5894 5898 5901 5903 5905 5908 5910 5913 5915 5918 5920 5922 5924 5927 5931 5930 5932 5933 5935 5936 5935 5934 5934 5934 5934 5928 5927 5923 5922 5920 5917 5914
5838 5843 5848 5853 5857 5862 5866 5869 5875 5878 5881 5884 5888 5891 5894 5896 5900 5903 5905 5908 5910 5913 5916 5919 5921 5922 5925 5924 5927 5929 5932 5933 5934 5932 5932 5931 5931 5933 5931 5926 5925 5919 5919 5915 5914
5831 5836 5842 5847 5852 5856 5860 5865 5870 5873 5877 5880 5883 5887 5890 5894 5898 5900 5902 5904 5908 5911 5913 5916 5919 5917 5921 5922 5924 5926 5928 5930 5932 5931 5930 5928 5929 5929 5927 5923 5923 5920 5914 5914 5911
5823 5829 5834 5840 5847 5850 5854 5860 5864 5869 5872 5877 5879 5883 5886 5891 5894 5896 5899 5902 5905 5908 5911 5913 5914 5915 5918 5919 5922 5924 5925 5925 5926 5927 5928 5929 5929 5927 5925 5923 5916 5916 5915 5908 5910
5817 5821 5826 5832 5838 5842 5852 5854 5858 5864 5868 5874 5875 5878 5883 5887 5890 5891 5895 5898 5902 5905 5908 5911 5912 5912 5915 5917 5918 5921 5919 5922 5923 5924 5925 5926 5928 5924 5922 5922 5915 5910 5908 5910 5907
5812 5814 5818 5824 5830 5837 5841 5848 5853 5859 5861 5864 5867 5874 5877 5882 5885 5887 5891 5894 5898 5900 5903 5906 5906 5910 5912 5913 5916 5918 5919 5920 5921 5922 5923 5925 5927 5927 5917 5917 5917 5909 5910 5908 5904
5806 5808 5810 5815 5822 5830 5835 5841 5848 5850 5862 5864 5861 5869 5874 5877 5881 5883 5888 5890 5894 5897 5901 5903 5905 5906 5909 5911 5913 5915 5916 5918 5920 5920 5918 5914 5919 5922 5916 5910 5913 5910 5905 5905 5902
5801 5804 5806 5811 5816 5822 5827 5833 5837 5848 5856 5862 5862 5863 5869 5873 5877 5879 5882 5885 5890 5894 5898 5900 5903 5904 5906 5908 5910 5911 5913 5916 5917 5919 5915 5914 5916 5907 5914 5909 5906 5907 5903 5901 5898
5796 5800 5804 5808 5811 5816 5820 5822 5834 5848 5854 5855 5856 5862 5865 5869 5873 5875 5878 5882 5886 5890 5895 5902 5904 5901 5901 5904 5907 5908 5910 5913 5912 5913 5914 5917 5916 5910 5904 5906 5899 5901 5899 5897 5895
5791 5795 5800 5804 5807 5810 5814 5822 5832 5837 5838 5842 5851 5857 5862 5867 5870 5873 5874 5879 5883 5886 5890 5896 5898 5898 5898 5901 5903 5904 5907 5909 5909 5909 5909 5912 5905 5903 5898 5897 5896 5898 5896 5894 5892
5785 5788 5794 5798 5801 5806 5812 5820 5824 5822 5831 5839 5846 5852 5858 5866 5868 5869 5873 5877 5879 5884 5886 5890 5893 5899 5894 5897 5898 5900 5903 5903 5905 5905 5906 5907 5906 5899 5898 5897 5893 5893 5892 5892 5890
5779 5782 5786 5791 5797 5802 5808 5815 5819 5822 5825 5833 5839 5844 5851 5855 5859 5865 5873 5875 5875 5880 5882 5884 5887 5890 5894 5894 5895 5896 5900 5899 5899 5902 5902 5903 5900 5887 5893 5892 5892 5885 5889 5888 5886
5771 5775 5782 5786 5792 5798 5803 5808 5813 5817 5820 5827 5832 5838 5840 5846 5854 5858 5864 5864 5867 5874 5874 5878 5881 5884 5887 5891 5893 5891 5893 5893 5894 5894 5896 5895 5895 5888 5882 5883 5891 5885 5887 5884 5882
5766 5770 5775 5779 5784 5788 5794 5800 5808 5808 5816 5821 5826 5830 5836 5844 5847 5853 5857 5857 5860 5866 5869 5872 5876 5878 5883 5886 5886 5884 5887 5888 5889 5889 5890 5893 5889 5876 5875 5877 5878 5890 5886 5879 5879
5757 5760 5763 5772 5777 5783 5788 5795 5797 5801 5810 5815 5819 5826 5832 5837 5841 5847 5852 5852 5856 5860 5865 5868 5869 5873 5876 5878 5882 5880 5879 5879 5884 5885 5884 5887 5884 5883 5874 5859 5851 5884 5884 5877 5876
5749 5753 5761 5764 5768 5776 5779 5784 5788 5797 5802 5808 5814 5820 5825 5829 5834 5839 5842 5848 5845 5852 5858 5861 5864 5866 5868 5871 5876 5879 5881 5881 5881 5881 5883 5880 5880 5867 5867 5869 5859 5878 5874 5876 5877
5741 5746 5752 5755 5762 5768 5773 5778 5784 5789 5792 5797 5801 5809 5816 5818 5817 5822 5827 5836 5832 5844 5852 5855 5857 5860 5864 5866 5868 5872 5876 5876 5876 5877 5877 5877 5869 5859 5861 5861 5864 5871 5873 5874 5873
Wind_Speed
17 14 12 15 13 11 11 13 15 16 18 19 19 18 18 17 15 15 14 13 15 17 17 19 17 16 15 13 17 19 9 9 4 9 6 7 10 8 3 12 17 20 23 24 29
18 16 15 14 14 13 12 14 15 17 19 20 19 18 17 16 15 14 14 13 14 15 17 19 17 18 17 21 16 14 25 19 13 7 7 10 7 9 22 5 13 23 23 23 25
22 20 15 14 14 15 15 15 16 18 20 20 19 17 16 15 15 13 12 13 12 14 15 16 14 14 18 20 3 11 5 9 11 2 5 5 6 12 10 21 18 21 23 23 24
24 22 18 15 16 16 16 15 17 19 20 20 19 18 16 15 14 12 12 11 11 11 13 14 13 14 17 13 16 7 6 12 3 1 1 4 4 2 10 17 21 21 23 23 23
27 24 21 19 18 18 18 18 17 18 20 21 20 19 17 16 14 12 11 11 10 10 10 12 13 12 16 11 16 8 9 7 4 1 2 2 5 4 7 14 16 20 20 21 22
29 26 23 21 20 20 19 20 19 19 19 20 20 20 19 16 14 12 11 10 9 10 10 10 11 12 8 13 16 12 9 8 7 1 2 3 4 10 13 15 16 19 20 19 20
31 28 25 23 22 21 21 21 21 20 18 19 20 20 19 15 14 12 10 9 9 10 10 10 9 10 12 11 10 8 7 7 2 3 4 11 4 6 15 16 17 18 19 19 20
32 31 28 26 24 23 22 22 21 19 20 20 20 21 18 18 15 13 11 11 11 11 11 10 10 9 8 7 7 4 4 4 8 8 8 8 24 16 16 17 19 20 20 20 18
33 32 32 29 27 26 25 24 23 21 20 20 21 21 19 18 17 16 14 13 12 13 13 12 11 8 8 7 3 7 2 3 7 10 9 4 5 18 13 17 17 18 18 18 17
34 34 33 32 28 28 27 26 25 24 22 21 21 21 20 19 18 17 16 15 15 14 14 14 13 11 9 9 9 4 9 5 17 14 6 5 5 15 14 19 18 16 18 17 18
36 35 34 33 32 30 30 29 29 28 23 23 22 23 18 19 19 18 17 16 15 14 14 13 14 12 6 8 18 23 22 19 10 9 10 7 10 10 17 17 17 17 19 18 18
41 37 36 34 34 32 32 32 29 28 26 25 24 24 18 18 19 20 18 16 16 15 14 12 11 11 16 14 12 12 21 17 10 13 10 11 8 8 12 16 15 24 17 19 19
40 42 38 36 34 34 33 35 30 30 28 27 25 23 19 21 21 21 19 18 17 17 14 13 7 21 12 14 14 14 14 10 10 12 9 15 7 17 17 16 25 20 22 19 21
36 41 42 39 36 33 34 31 32 32 32 29 28 25 25 24 24 22 20 19 18 18 17 18 20 17 14 16 15 12 8 18 15 12 6 7 14 16 10 18 25 16 21 27 21
28 35 41 43 41 40 33 32 30 30 30 25 31 32 28 25 25 23 22 21 20 18 19 16 22 23 16 15 17 15 23 15 13 14 13 10 11 11 15 10 17 17 33 26 23
24 29 36 41 43 42 39 34 31 30 32 28 32 25 28 26 27 25 23 23 22 21 22 20 22 20 17 18 17 18 17 15 14 13 14 14 12 10 14 22 23 27 32 28 25
21 20 31 37 39 39 39 38 35 36 25 18 31 25 24 25 27 28 24 25 23 21 18 18 18 16 17 17 17 17 15 12 8 9 17 20 15 13 17 28 29 26 29 24 21
23 16 20 24 28 33 37 40 43 36 27 16 16 25 24 24 26 27 25 25 23 21 12 11 15 14 15 17 15 16 15 13 13 12 24 19 23 10 22 27 26 20 21 21 18
26 22 21 21 23 28 33 38 35 27 21 22 24 19 23 23 24 27 26 24 22 21 21 8 13 13 17 17 17 15 15 12 18 20 20 17 18 10 11 13 23 20 16 15 14
27 28 25 25 26 27 30 29 28 25 30 28 23 28 21 21 24 22 25 25 24 23 22 15 12 13 21 19 17 17 15 12 14 18 18 15 28 32 26 19 13 19 17 17 16
27 30 30 30 29 28 24 24 32 36 38 31 29 16 24 18 24 23 22 22 22 21 23 25 25 10 22 18 17 18 18 22 19 18 20 18 24 33 31 35 23 19 16 18 15
28 30 32 34 33 29 27 27 31 24 35 36 34 33 29 30 21 24 16 17 22 20 23 25 25 21 16 12 14 14 15 21 22 20 19 22 27 24 9 16 17 18 18 18 14
31 33 29 32 34 32 30 33 35 35 30 29 31 33 39 36 33 28 17 28 30 29 29 25 26 24 22 19 17 24 20 23 22 24 25 24 27 32 39 20 10 30 21 16 14
32 31 30 32 33 40 40 37 38 42 31 32 33 35 34 35 37 30 27 32 34 31 33 30 25 28 20 17 23 27 18 15 21 22 22 17 24 33 16 29 37 11 12 11 12
34 36 39 33 34 35 38 41 46 44 34 38 39 36 34 34 31 30 39 28 37 34 27 29 33 29 24 25 17 14 19 13 13 16 22 20 28 31 37 45 23 9 13 13 13
34 38 36 37 38 37 41 42 46 44 42 41 40 40 39 37 39 40 39 40 38 36 36 34 32 31 28 26 20 22 21 20 18 12 19 23 21 37 40 31 14 16 20 20 11
32 36 36 41 38 37 36 38 39 37 43 46 48 44 41 45 49 50 48 45 52 40 36 34 34 31 24 22 22 25 22 23 21 17 19 18 26 38 37 18 11 22 22 20 14
Wind_Direction
223 225 219 218 221 218 205 199 197 191 182 180 173 165 155 150 147 141 145 141 137 138 131 133 132 132 140 129 109 121 209 137 124 85 49 78 347 5 351 14 2 3 9 10 14
224 231 231 218 218 220 209 203 197 193 187 186 179 170 162 151 148 144 140 139 140 142 140 141 142 141 144 130 145 178 142 115 212 162 84 8 6 4 356 326 24 353 9 12 17
227 230 232 227 224 215 213 206 201 195 191 189 186 178 173 160 153 145 142 133 133 139 147 150 151 144 156 138 303 7 60 75 233 140 104 95 1 38 315 325 11 352 7 12 16
231 233 235 230 226 222 213 214 206 200 195 192 192 187 182 173 165 156 150 140 137 139 148 162 166 159 149 155 180 108 226 174 213 165 29 111 166 355 337 351 342 3 9 10 10
232 235 236 232 223 221 216 215 213 206 200 200 196 195 191 186 173 169 158 155 152 149 162 169 174 177 159 199 192 166 224 197 195 239 34 32 49 359 347 1 357 5 10 6 8
231 234 233 229 223 218 217 215 212 209 207 203 203 203 200 193 188 185 172 166 170 169 177 179 179 182 202 179 188 206 197 189 174 143 333 316 92 322 358 358 4 5 9 5 9
231 232 232 230 224 217 218 217 213 211 211 212 209 212 208 202 202 200 189 183 186 192 192 189 190 190 182 179 196 199 180 175 120 359 336 288 254 189 344 351 0 6 5 4 1
230 231 232 230 223 222 219 219 217 214 214 216 219 219 214 213 214 216 210 202 197 201 207 205 208 203 201 186 179 179 161 56 296 288 308 357 332 7 334 356 357 358 1 356 353
230 231 230 230 223 222 221 219 220 216 214 218 221 224 219 217 220 217 218 214 209 208 210 214 210 203 195 179 147 5 323 286 242 281 264 275 352 311 340 329 359 352 352 349 343
230 229 231 230 225 223 223 224 219 216 214 219 222 222 220 221 221 221 222 217 215 213 216 217 212 200 196 171 98 202 279 283 230 277 273 307 358 304 334 339 349 352 339 343 340
229 228 230 231 227 223 221 223 224 223 216 218 225 230 220 222 223 223 222 221 218 216 216 215 215 205 193 271 223 189 189 189 221 260 272 283 238 282 300 329 322 348 340 341 339
230 228 227 229 229 226 221 223 222 225 223 223 216 225 221 226 227 227 223 222 222 218 213 211 222 202 220 233 229 209 217 231 264 264 287 293 296 287 272 310 333 327 337 335 336
233 230 228 228 226 228 225 225 225 227 226 230 227 228 229 229 230 227 227 224 224 225 218 207 227 229 234 227 223 228 238 240 254 244 298 323 325 327 314 317 326 319 325 335 331
233 232 229 228 227 228 229 226 226 228 230 229 232 231 231 231 232 229 229 229 228 228 222 218 224 241 233 232 231 227 256 251 249 258 254 278 276 295 277 298 310 317 328 326 327
234 233 229 227 227 227 227 229 228 227 233 243 234 231 230 231 236 230 227 230 230 228 228 230 231 244 235 228 229 218 236 253 258 270 274 262 275 253 291 237 272 291 321 321 320
238 235 229 227 226 228 228 228 227 226 225 233 238 227 230 225 232 233 229 228 227 226 229 219 237 241 240 235 236 235 252 258 264 275 280 297 254 251 275 270 283 283 305 309 310
238 240 225 221 224 227 228 229 227 226 209 227 248 232 230 224 228 234 228 226 228 230 232 231 244 237 237 242 243 244 250 258 290 298 262 274 208 230 265 273 287 288 296 303 306
229 227 216 213 215 221 222 223 224 222 210 229 239 235 229 226 222 233 229 224 220 219 201 251 255 252 249 244 250 242 246 236 241 246 300 304 308 260 272 289 293 293 290 298 304
226 217 211 206 213 218 217 220 219 209 209 232 221 215 225 226 226 229 227 225 218 218 199 198 259 237 248 239 243 247 248 252 256 232 266 280 292 220 253 283 285 306 299 309 321
225 222 215 214 213 216 217 215 203 199 206 206 211 223 220 212 226 218 231 225 221 221 215 192 203 231 254 248 246 243 236 254 270 270 274 275 275 274 273 285 269 310 320 323 329
225 224 219 216 215 216 214 205 203 211 202 208 212 194 187 208 216 218 226 226 229 216 222 207 209 215 258 254 250 255 250 253 246 222 256 266 274 275 270 283 296 281 311 312 323
230 228 223 220 217 218 214 207 209 208 215 216 214 207 194 193 203 217 221 220 226 202 231 222 226 218 234 267 285 239 234 265 254 252 255 268 277 294 311 279 213 271 309 305 313
229 230 223 225 217 220 213 209 214 219 215 210 209 212 214 193 201 189 197 210 219 211 206 219 222 227 236 241 250 272 270 251 246 258 250 247 251 264 254 203 272 277 288 293 308
228 231 223 222 220 216 215 210 215 224 214 210 209 213 214 216 215 220 211 208 221 223 226 227 225 229 225 241 234 235 257 262 247 251 258 264 267 271 255 253 247 260 277 296 311
227 226 223 218 221 222 221 221 217 224 217 218 219 217 212 209 220 224 223 233 235 233 232 235 236 238 233 219 254 272 278 216 257 263 262 246 257 257 265 252 143 275 292 306 302
226 231 229 226 226 224 220 219 222 223 227 225 223 224 224 224 221 222 225 222 242 235 224 240 239 242 242 231 234 245 254 264 245 251 265 271 273 268 272 278 151 289 305 293 277
227 228 227 227 226 224 224 226 226 226 227 228 226 223 226 226 223 224 226 220 230 232 234 234 239 249 251 243 229 233 247 263 253 259 253 271 275 269 268 282 290 294 287 296 294